SCP
0 0 0 0 0 0 0 0 0 0 0 0 0 0 0 0 0 0 0 0 0 0 0 0 0 0 0 0 0 0 0 0 0 0 0 0 0 0 0 0 0 0 0 0 0 0 0 0 0 0 0 0 0 0
0 0 0 0 0 0 0 0 0 0 0 0 0 0 0 0 0 0 0 0 0 0 0 0 0 0 0 0 0 0 0 0 0 0 0 0 0 0 0 0 0 0 0 0 0 0 0 0 0 0 0 0 0 0
0 0 0 0 0 0 0 0 0 0 0 0 0 0 0 0 0 0 0 0 0 0 0 0 0 -0 0 0 0 0 0 0 0 0 0 0 0 0 0 0 0 0 0 0 0 0 0 0 0 0 0 0 0 0
0 0 0 0 0 0 0 0 0 0 0 0 0 0 0 0 0 0 0 0 0 0 0 0 0 0 0 0 0 0 0 0 0 0 0 0 0 0 0 0 0 0 0 0 0 0 0 0 0 0 0 0 0 0
0 0 0 0 0 0 0 0 0 0 0 0 0 0 0 0 0 0 0 0 0 0 0 0 0 0 0 0 0 0 0 0 0 0 0 0 0 0 0 0 0 0 0 0 0 0 0 0 0 0 0 0 0 0
0 0 0 0 0 0 0 0 0 0 0 0 0 0 0 0 0 0 0 0 0 0 0 0 0 0 0 0 0 0 0 0 0 0 0 0 0 0 0 0 0 0 0 0 0 0 0 0 0 0 0 0 0 0
0 0 0 0 0 0 0 0 0 0 0 0 0 0 0 0 0 0 0 0 0 0 0 0 0 0 0 0 0 0 0 0 0 0 0 0 0 0 0 0 0 0 0 0 0 0 0 0 0 0 0 0 0 0
0 0 0 0 0 0 0 0 0 0 0 0 0 0 0 0 0 0 -0 -0 0 0 0 0 0 0 0 0 0 0 0 0 0 0 0 0 0 0 0 0 0 0 0 0 0 0 -0 0 0 0 0 0 0 0
0 0 0 0 0 0 0 0 0 0 0 0 0 0 0 0 0 0 0 0 0 0 0 0 0 0 0 0 0 0 0 0 0 0 0 0 0 0 0 0 0 0 0 0 0 0 0 0 0 0 0 0 0 0
0 0 0 0 0 0 0 0 0 0 0 0 0 0 0 0 0 0 0 0 0 0 0 0 0 0 0 0 0 0 0 0 0 0 0 0 0 0 0 0 0 0 -0 0 0 0 0 0 0 0 0 0 0 0
0 -0 0 0 0 0 0 -0 0 0 0 0 0 0 0 0 0 0 0 0 0 0 0 0 0 0 0 0 0 0 0 0 0 0 0 0 0 0 0 0 0 0 0 0 0 0 -0 0 0 0 0 0 0 0
-0 0 0 -0 0 0 -0 0 -0 0 0 0 0 0 0 0 0 0 0 0 0 0 0 0 0 0 0 0 0 0 0 0 0 0 0 0 0 0 0 -0 0 0 0 0 0 0 0 0 0 0 0 0 0 0
0 -0 -0 0 0 -0 0 0 0 0 0 0 0 0 0 0 0 0 0 0 0 0 0 0 0 0 0 0 0 0 0 0 0 0 0 0 0 0 -0 0 0 0 0 0 0 0 0 0 0 0 0 0 0 0
-0 0 0 0 -0 -0 -0 0 -0 -0 0 0 -0 0 0 0 0 0 0 0 0 0 0 0 0 0 0 0 0 0 0 0 0 0 -0 -0 -0 -0 -0 0 0 0 -0 -0 -0 0 -0 0 0 0 0 0 0 0
0 0 0 0 -0 -0 -0 -0 -0 -0 -0 0 0 0 0 0 0 0 0 0 0 0 0 0 0 0 0 0 0 0 0 -0 -0 -0 -0 -0 -0 -0 -0 0 0 0 -0 0 0 -0 -0 0 0 -0 -0 0 -0 -0
0 0 0 -0 -0 -0 0 0 0 0 0 0 0 0 0 0 0 0 0 0 0 0 0 0 0 0 0 0 0 0 -0 -0 -0 0 -0 0 0 -0 0 0 -0 -0 0 -0 -0 -0 -0 -0 -0 0 -0 -0 -0 0
0 0 0 0 0 0 0 0 0 0 0 0 0 0 0 0 0 0 0 0 0 0 0 0 0 0 0 0 0 0 0 0 -0 -0 -0 -0 -0 -0 -0 -0 -0 -0 -0 0 0 0 0 -0 -0 -0 0 -0 0 0
0 0 0 0 0 0 0 0 0 0 0 0 0 0 0 0 0 0 0 0 0 0 0 0 0 0 0 0 0 0 0 0 -0 -0 -0 -0 0 -0 -0 -0 -0 -0 -0 -0 0 0 0 0 -0 0 0 0 0 0
0 0 0 0 0 0 0 0 0 0 0 0 0 0 0 0 0 0 0 0 0 0 0 0 0 0 0 0 0 0 0 -0 -0 -0 -0 -0 -0 -0 -0 -0 0 0 0 -0 0 -0 -0 0 0 0 0 0 0 0
0 0 0 0 0 0 0 0 0 0 0 0 0 0 0 0 0 0 0 0 0 0 0 0 0 0 0 0 0 0 -0 -0 0 -0 -0 -0 -0 -0 -0 0 0 0 -0 -0 -0 0 -0 -0 -0 -0 -0 0 0 -0
0 0 0 0 0 0 0 0 0 0 0 0 0 0 0 0 0 0 0 0 0 0 0 0 0 0 0 0 0 0 0 0 -0 -0 -0 0 0 -0 -0 -0 -0 0 -0 -0 0 0 0 -0 -0 -0 0 0 0 0
0 0 -0 0 0 0 0 0 0 0 0 0 0 0 0 0 0 0 0 0 0 0 0 0 0 0 -0 0 0 0 -0 -0 -0 -0 -0 0 0 0 0 0 -0 -0 0 0 -0 0 0 0 0 0 0 0 0 0
0 0 0 0 0 0 0 0 0 0 0 0 0 0 0 0 0 0 0 0 0 0 0 0 0 0 0 0 -0 -0 -0 0 0 0 0 0 0 0 0 -0 -0 -0 -0 -0 -0 0 0 0 0 0 0 0 0 0
0 0 0 0 0 0 0 0 0 0 0 0 0 0 0 0 0 0 0 0 0 0 0 0 0 -0 0 0 -0 -0 -0 -0 -0 0 -0 -0 -0 0 0 0 -0 0 -0 -0 0 0 0 0 0 0 0 0 0 0
0 0 0 0 0 0 0 0 0 0 0 0 0 0 0 0 0 0 0 0 0 0 -0 -0 -0 0 0 -0 0 0 0 -0 -0 -0 -0 -0 0 0 0 -0 0 -0 -0 0 0 0 0 0 0 0 0 0 0 0
0 0 0 0 0 0 0 0 0 0 0 0 0 0 0 0 0 0 0 0 0 0 0 0 0 0 0 0 0 0 0 0 0 0 -0 0 -0 -0 0 0 0 -0 -0 0 0 0 0 0 0 0 0 0 0 0
0 0 0 0 0 0 0 0 0 0 0 0 0 0 0 0 0 0 0 0 0 0 0 0 0 0 0 0 0 0 0 0 0 -0 -0 -0 -0 0 0 0 0 0 0 0 0 0 0 0 0 0 0 0 0 0
0 0 0 0 0 0 0 0 0 0 0 0 0 0 0 0 0 0 0 0 0 0 0 0 0 0 0 0 0 0 0 0 0 0 0 0 -0 -0 0 0 0 0 0 0 0 0 0 0 0 0 0 0 0 0
0 0 0 0 0 0 0 0 0 0 0 0 0 0 0 0 0 0 0 0 0 0 0 -0 0 -0 -0 -0 -0 -0 -0 0 0 -0 -0 0 0 0 0 0 0 0 0 0 0 0 0 0 0 0 0 0 0 0
0 0 0 0 0 0 0 0 0 0 0 0 0 0 0 0 0 0 0 0 -0 -0 -0 -0 -0 0 -0 -0 -0 -0 -0 -0 -0 0 0 0 0 0 0 0 0 0 0 0 0 0 0 0 0 0 0 0 0 0
0 0 0 0 0 0 0 0 0 0 0 0 0 0 0 0 0 0 0 0 -0 -0 0 0 0 0 -0 -0 -0 -0 0 -0 0 0 0 0 0 0 0 0 0 0 0 0 0 0 0 0 0 0 0 0 0 0
0 0 0 0 0 0 0 0 0 0 0 -0 -0 0 0 0 0 0 0 0 0 0 0 -0 0 0 0 0 0 0 -0 -0 -0 0 0 0 0 0 0 0 0 0 0 0 0 0 0 0 0 0 0 0 0 0
0 0 0 0 0 0 0 0 0 0 0 0 0 0 0 0 0 0 0 0 0 0 0 0 0 0 -0 -0 0 -0 -0 -0 -0 0 0 0 0 0 0 0 0 0 0 0 0 0 0 0 0 0 0 0 0 0
Wind_Speed_500mb
43 42 40 39 35 34 32 35 37 33 33 33 30 29 26 19 24 24 20 24 25 12 37 29 16 18 11 9 7 6 11 4 6 5 5 5 6 7 1 7 5 7 4 4 2 3 9 13 7 9 8 19 25 29
46 44 43 42 34 33 33 34 34 33 32 32 32 29 30 20 29 30 23 26 25 34 26 27 30 37 42 41 31 12 7 3 5 7 1 3 3 0 5 5 2 3 9 6 13 11 7 11 24 27 25 31 33 28
49 47 48 44 41 37 34 33 35 33 32 32 32 29 31 25 31 36 24 28 25 20 43 57 62 58 53 57 48 20 20 15 14 12 12 4 7 7 6 9 3 5 8 5 4 7 12 38 36 33 30 37 31 28
48 45 43 44 43 40 35 33 33 33 33 33 31 29 31 29 25 39 39 30 36 15 10 31 33 29 24 27 33 55 57 20 23 14 6 5 5 10 6 5 7 9 12 6 10 20 29 26 32 38 36 27 31 17
42 43 42 41 42 42 36 34 31 34 31 31 32 29 32 24 18 31 38 38 28 26 9 22 42 48 45 55 57 40 46 57 32 6 4 7 8 5 3 2 9 18 14 9 11 19 14 39 35 33 18 18 18 9
39 38 38 39 35 36 36 35 30 29 30 30 30 30 31 21 25 15 17 33 39 41 12 8 19 41 48 31 31 49 64 52 28 15 13 13 17 13 5 6 16 36 48 42 25 36 48 56 54 34 22 18 14 6
34 34 35 34 32 32 31 30 29 26 28 27 28 30 30 21 32 21 8 10 29 47 10 11 14 9 7 26 29 25 39 31 24 14 13 14 16 21 6 16 17 48 56 56 62 63 54 47 39 28 26 15 16 6
28 32 31 33 32 29 26 28 26 24 25 22 26 29 22 27 31 34 36 24 28 36 12 6 9 13 3 10 13 22 27 21 21 11 8 8 7 7 8 25 45 39 35 41 46 50 51 47 30 28 27 23 18 10
36 29 32 33 31 29 24 25 23 21 18 22 20 16 12 21 20 30 29 30 33 28 8 9 4 6 14 3 10 11 15 4 6 6 8 12 4 9 17 27 21 16 19 31 34 28 28 30 22 28 31 30 26 22
36 39 31 33 30 28 23 23 22 19 16 19 14 9 8 15 23 21 13 14 22 18 12 7 10 6 12 8 3 10 5 6 5 8 13 6 8 25 22 17 17 15 22 32 30 20 17 23 22 30 30 24 23 23
30 30 32 33 30 25 25 25 21 21 17 10 8 8 6 18 17 11 9 9 14 5 14 15 31 9 11 1 2 1 6 3 3 7 8 4 6 6 7 8 9 11 16 20 21 27 35 27 18 27 20 20 19 21
27 24 28 28 26 22 27 25 26 26 15 14 10 8 13 12 5 5 6 2 7 9 11 11 14 24 10 14 5 2 6 3 8 7 3 4 6 18 8 13 17 24 23 23 16 25 25 12 15 16 16 14 12 12
18 27 27 29 25 23 27 26 23 26 21 7 3 4 10 10 10 9 12 6 5 7 12 12 6 11 14 15 3 4 5 8 8 3 4 6 10 6 7 12 14 16 15 21 17 22 16 5 11 8 9 8 11 13
19 26 30 28 25 24 23 25 24 24 15 10 8 5 6 7 8 9 8 7 13 7 5 12 7 10 10 8 6 5 4 5 3 3 5 4 10 7 24 13 24 23 21 18 19 23 9 8 4 2 7 16 15 11
27 27 32 27 25 24 23 21 29 37 5 6 9 6 10 16 18 27 30 27 31 23 24 12 7 12 5 6 2 6 5 4 1 3 4 4 10 8 17 28 21 15 19 19 17 18 5 5 7 4 2 12 17 12
32 32 32 29 28 26 22 28 35 20 8 8 7 7 9 11 7 11 14 19 12 15 12 9 4 5 3 4 4 2 6 5 3 2 4 3 4 8 14 16 12 15 18 14 13 12 9 12 7 7 12 11 9 10
34 30 34 32 29 26 33 25 11 7 7 6 7 14 18 25 19 17 20 10 6 4 5 5 7 3 2 5 4 3 3 2 10 14 10 8 7 10 10 7 5 12 14 13 13 12 8 11 15 19 13 7 12 15
25 34 36 31 37 35 20 10 7 6 8 11 9 19 19 22 27 18 16 22 11 4 4 5 7 8 5 3 1 4 8 13 16 16 13 13 12 9 10 18 13 12 20 23 25 23 21 24 26 34 30 30 30 28
33 37 31 48 37 15 9 10 7 6 10 10 18 16 13 18 7 9 18 12 7 9 12 9 9 4 3 2 1 4 24 18 17 16 17 17 17 17 18 22 29 32 25 23 20 16 14 21 30 29 37 36 38 29
33 33 45 29 23 4 5 6 8 7 8 12 17 15 9 11 10 6 15 8 11 7 10 6 4 7 16 11 6 11 20 18 15 20 22 21 20 20 21 19 17 20 30 25 20 22 21 19 16 19 18 7 18 4
46 46 32 30 9 6 5 5 6 5 11 11 16 14 7 4 6 17 18 15 17 13 10 26 27 16 10 16 16 14 12 10 16 26 21 25 26 24 26 28 29 25 20 20 23 25 25 26 21 13 8 14 14 9
41 27 15 21 6 6 6 3 3 6 4 10 11 14 7 9 13 19 28 26 13 15 12 12 13 17 16 15 18 19 21 29 29 29 30 26 26 25 25 22 18 22 22 23 14 14 14 13 10 8 6 9 10 12
22 13 6 10 6 6 8 5 4 4 5 9 1 6 7 7 10 13 11 12 13 28 25 16 21 20 22 22 17 21 23 24 27 32 25 27 30 33 30 26 27 23 22 23 21 14 8 3 2 1 3 7 8 10
9 5 4 6 15 8 8 7 7 6 4 9 3 4 7 10 7 10 6 9 26 27 21 19 22 31 33 31 35 31 26 26 30 20 22 24 26 25 21 19 19 24 27 25 20 16 13 11 10 2 6 9 6 3
6 5 5 11 11 8 7 6 1 4 7 8 7 9 9 15 6 6 4 18 30 35 23 17 19 30 38 40 35 25 25 26 27 27 24 17 18 18 18 14 15 20 24 27 26 16 15 16 14 11 10 8 9 13
3 5 6 14 13 12 8 9 10 10 7 7 7 6 10 7 8 6 7 23 27 29 28 23 26 29 30 27 29 26 25 21 16 15 15 14 7 8 15 11 10 12 17 23 23 13 10 12 10 7 6 8 10 14
10 9 14 16 10 6 11 12 13 13 8 8 4 6 6 8 7 7 15 24 34 33 32 30 21 21 25 22 21 20 11 11 12 5 17 14 5 2 4 5 7 8 12 16 20 18 12 7 7 9 11 9 10 13
10 20 12 25 18 22 8 8 7 8 5 7 5 6 4 3 2 2 18 23 23 19 18 23 25 25 23 18 8 11 10 12 13 10 14 11 6 4 3 1 4 6 8 11 14 13 10 12 15 16 15 9 9 9
12 19 11 19 11 13 15 9 9 9 9 4 5 4 6 13 17 28 13 5 6 8 13 19 23 21 24 25 18 12 14 13 13 12 9 5 5 3 3 5 5 2 6 12 12 10 11 14 16 18 13 8 8 9
20 19 11 15 10 10 18 13 20 30 40 44 37 33 24 15 6 7 17 26 28 29 23 17 15 8 15 16 17 11 3 7 12 10 5 3 4 7 9 7 6 7 1 7 9 9 11 16 19 16 10 9 10 12
9 19 15 15 10 17 21 24 34 41 41 40 42 47 38 36 35 33 26 24 23 22 16 10 8 11 14 17 20 23 21 17 14 12 12 12 11 11 10 6 2 7 2 3 4 7 11 16 16 10 10 12 13 17
11 12 7 8 7 15 15 14 15 17 23 31 30 37 29 26 17 19 14 7 4 6 12 14 13 11 10 11 15 23 25 24 25 24 24 22 23 25 21 13 3 3 4 6 8 12 13 13 12 11 14 17 19 22
13 14 12 7 8 8 11 7 8 6 8 5 5 12 12 6 4 4 7 14 7 2 3 6 6 7 8 9 13 20 23 23 23 21 19 18 19 21 20 18 17 13 11 12 14 14 13 16 16 16 19 24 28 31
Wind_Direction_500mb
273 276 278 282 286 278 289 288 277 279 288 291 297 298 288 241 220 232 248 248 247 245 260 257 255 229 201 187 145 310 347 306 15 67 138 221 182 229 180 228 206 192 135 230 116 225 283 190 129 178 215 312 317 321
271 271 271 274 279 291 287 291 283 270 279 287 292 294 292 251 217 218 254 249 261 236 256 259 257 251 245 255 270 239 243 207 237 95 166 119 258 158 172 255 41 231 181 205 177 226 241 237 255 268 284 292 308 316
272 270 267 265 267 276 279 280 282 265 271 279 287 288 289 273 216 216 240 238 234 265 280 269 264 273 272 261 251 242 261 228 229 244 173 170 239 131 187 241 214 251 182 197 19 282 251 296 299 267 283 272 307 320
268 268 265 261 260 266 272 274 280 268 266 273 283 283 286 282 224 220 226 252 232 260 269 270 271 256 260 245 244 240 234 221 248 226 172 143 190 185 219 236 192 209 155 204 257 292 309 326 322 301 283 278 294 304
264 265 261 258 257 255 260 267 268 270 263 264 281 282 285 282 235 221 236 242 227 226 289 284 285 275 263 252 243 241 222 234 235 215 144 212 210 158 206 71 242 203 204 177 231 250 272 281 317 314 272 262 274 280
264 257 260 252 253 251 258 258 258 257 260 263 275 280 277 270 212 233 244 245 231 224 265 297 290 280 283 244 224 226 231 231 210 200 209 213 217 187 189 238 261 243 237 236 247 285 296 290 290 281 246 256 224 226
261 260 253 247 250 250 255 251 246 250 262 263 274 280 275 242 203 214 230 238 213 202 236 280 280 265 304 213 217 210 203 200 199 204 209 202 204 192 163 244 267 269 271 273 284 293 292 277 265 243 225 221 177 210
266 257 250 243 243 242 248 243 240 250 259 269 274 278 259 211 221 237 219 153 162 178 226 251 269 310 170 182 156 164 168 181 198 210 178 187 156 184 245 243 257 274 278 276 273 270 268 270 276 217 213 211 197 196
252 255 245 240 235 232 241 233 238 252 256 274 270 216 196 208 227 241 243 242 207 207 249 204 235 274 335 135 151 141 159 124 190 190 223 159 173 221 224 244 259 289 277 293 299 281 263 255 253 218 216 219 222 205
257 241 250 227 223 226 238 227 238 240 246 233 212 204 204 208 213 203 199 208 160 221 243 248 206 251 326 359 143 115 115 152 174 237 147 163 248 254 269 267 274 280 289 295 287 296 296 261 247 232 232 241 233 214
253 243 226 217 208 220 220 232 208 214 224 202 211 230 196 188 183 200 221 187 180 252 218 232 207 205 276 40 295 161 163 153 174 243 161 219 276 286 298 256 274 294 313 321 297 293 291 272 281 238 237 241 241 223
240 216 205 201 203 206 210 213 201 210 199 192 207 239 162 190 198 226 222 219 201 229 206 191 217 203 226 214 168 232 141 98 228 151 146 270 256 329 287 277 279 295 305 307 333 335 320 260 242 246 238 235 238 229
200 193 198 197 196 204 211 191 211 211 218 255 237 264 181 183 194 203 190 200 235 228 209 192 205 184 199 204 126 158 130 211 130 96 223 232 302 34 337 313 330 349 330 312 288 330 323 188 126 165 187 189 137 140
188 180 186 183 194 190 190 197 195 203 208 230 179 230 223 185 243 206 208 210 229 254 191 302 218 175 181 157 179 148 194 115 106 156 235 237 209 73 36 352 330 328 323 330 328 314 313 214 289 245 183 159 134 93
172 174 181 188 176 185 183 192 190 189 284 267 221 215 211 245 271 273 276 267 257 264 278 289 229 181 196 160 202 107 135 73 295 252 225 174 203 267 300 304 327 14 6 357 345 3 44 54 70 38 355 164 183 248
163 164 171 175 170 164 170 157 180 198 239 254 252 275 305 275 298 322 311 282 290 241 212 221 192 119 54 90 106 89 124 169 206 225 96 150 269 302 314 328 349 10 4 4 10 2 355 312 301 3 80 74 99 129
159 165 162 161 154 154 162 166 165 238 254 265 272 278 283 285 270 292 306 303 332 206 173 157 63 63 38 69 68 30 131 190 114 113 100 64 9 342 327 341 19 16 24 34 24 28 57 77 118 160 177 167 84 114
154 154 152 147 147 143 154 181 224 250 253 247 239 266 301 300 294 319 351 10 33 26 23 100 109 42 52 58 103 211 120 129 121 106 75 34 25 39 75 92 61 38 83 74 69 89 94 104 103 94 96 103 108 94
149 147 146 144 138 142 181 191 242 268 259 260 266 289 295 297 332 23 2 357 76 107 104 65 57 342 335 295 352 133 147 142 131 105 73 65 65 71 94 96 86 94 84 62 66 86 110 91 85 98 102 96 83 53
140 146 157 146 156 151 189 196 215 268 283 320 308 323 330 284 333 37 43 94 112 92 54 52 78 117 101 111 352 131 118 113 119 111 95 78 83 88 99 97 89 87 84 65 72 67 70 85 72 70 98 71 30 31
141 150 161 177 208 296 241 218 221 264 304 306 323 320 336 11 41 16 24 68 62 38 60 90 86 104 103 94 95 103 112 114 114 118 110 108 95 97 89 77 85 94 82 80 75 76 78 75 75 83 105 107 102 105
151 155 185 181 283 267 255 235 224 291 270 297 319 347 19 13 29 32 64 54 54 33 23 38 81 104 101 104 97 93 102 120 111 97 94 104 106 100 88 66 85 87 83 75 71 94 92 83 91 99 90 98 121 121
145 161 217 224 286 340 300 313 240 214 176 141 56 318 309 18 49 25 63 43 47 10 19 71 103 99 94 97 103 122 123 131 124 123 98 93 92 82 76 75 67 56 47 42 32 23 6 359 338 332 153 151 150 127
261 234 251 212 203 238 243 233 210 226 226 171 147 76 32 28 70 72 55 32 8 14 51 82 110 110 104 91 96 107 120 126 120 112 122 112 98 98 76 61 55 49 40 27 20 23 33 35 22 30 163 161 138 50
278 224 253 261 171 219 219 181 175 91 59 36 66 15 357 9 58 62 51 2 25 28 53 83 114 118 105 96 77 99 113 124 128 113 123 122 98 88 66 60 49 39 31 22 22 27 56 51 58 95 105 81 40 16
300 14 21 350 357 36 359 34 27 23 36 59 44 29 18 58 54 31 338 5 32 47 55 82 107 119 114 94 78 96 129 142 147 134 124 150 109 49 48 62 40 34 25 24 33 37 51 64 70 62 45 26 14 13
25 351 354 7 348 21 61 59 54 55 51 35 22 27 35 59 30 333 40 63 67 66 72 77 87 123 110 73 75 72 97 148 169 127 141 160 170 63 67 57 38 32 26 36 42 37 23 36 45 29 16 11 14 21
14 14 18 10 43 40 60 42 41 26 19 25 50 45 92 83 106 61 84 91 67 74 86 80 81 93 95 108 116 112 107 153 155 173 187 186 191 195 189 102 17 15 29 38 39 31 32 27 19 16 4 342 353 4
23 7 43 23 50 51 34 33 32 39 16 126 96 73 57 69 120 138 119 15 45 108 135 107 97 90 75 66 80 140 155 160 183 192 212 210 209 309 342 310 286 315 26 29 36 32 20 10 7 5 7 351 317 313
15 40 66 36 38 46 27 37 35 59 84 95 99 115 106 123 189 211 101 87 81 86 96 100 95 44 34 31 39 40 12 269 267 268 282 308 360 359 4 355 278 255 336 9 6 15 8 359 354 351 349 348 348 335
55 80 72 51 54 37 44 65 78 92 97 99 94 90 87 86 91 94 88 89 87 85 86 97 99 74 52 47 44 39 38 43 55 66 68 55 31 9 8 25 163 190 263 288 317 337 340 339 341 341 336 327 320 325
51 44 52 37 33 41 70 63 67 75 101 115 113 111 102 90 82 79 74 80 52 79 81 70 64 70 59 44 44 43 49 65 72 76 74 65 54 45 41 50 109 236 303 305 312 321 329 337 340 328 326 333 333 324
77 71 57 55 31 30 30 44 52 72 79 92 104 115 91 75 94 153 35 17 356 234 53 64 78 64 66 74 63 56 65 71 69 64 53 39 30 24 25 35 41 37 18 0 343 326 317 324 329 332 328 323 322 322
Wind_Speed_850mb
43 42 40 39 35 34 32 35 37 33 33 33 30 29 26 19 24 24 20 24 25 12 37 29 16 18 11 9 7 6 11 4 6 5 5 5 6 7 1 7 5 7 4 4 2 3 9 13 7 9 8 19 25 29
46 44 43 42 34 33 33 34 34 33 32 32 32 29 30 20 29 30 23 26 25 34 26 27 30 37 42 41 31 12 7 3 5 7 1 3 3 0 5 5 2 3 9 6 13 11 7 11 24 27 25 31 33 28
49 47 48 44 41 37 34 33 35 33 32 32 32 29 31 25 31 36 24 28 25 20 43 57 62 58 53 57 48 20 20 15 14 12 12 4 7 7 6 9 3 5 8 5 4 7 12 38 36 33 30 37 31 28
48 45 43 44 43 40 35 33 33 33 33 33 31 29 31 29 25 39 39 30 36 15 10 31 33 29 24 27 33 55 57 20 23 14 6 5 5 10 6 5 7 9 12 6 10 20 29 26 32 38 36 27 31 17
42 43 42 41 42 42 36 34 31 34 31 31 32 29 32 24 18 31 38 38 28 26 9 22 42 48 45 55 57 40 46 57 32 6 4 7 8 5 3 2 9 18 14 9 11 19 14 39 35 33 18 18 18 9
39 38 38 39 35 36 36 35 30 29 30 30 30 30 31 21 25 15 17 33 39 41 12 8 19 41 48 31 31 49 64 52 28 15 13 13 17 13 5 6 16 36 48 42 25 36 48 56 54 34 22 18 14 6
34 34 35 34 32 32 31 30 29 26 28 27 28 30 30 21 32 21 8 10 29 47 10 11 14 9 7 26 29 25 39 31 24 14 13 14 16 21 6 16 17 48 56 56 62 63 54 47 39 28 26 15 16 6
28 32 31 33 32 29 26 28 26 24 25 22 26 29 22 27 31 34 36 24 28 36 12 6 9 13 3 10 13 22 27 21 21 11 8 8 7 7 8 25 45 39 35 41 46 50 51 47 30 28 27 23 18 10
36 29 32 33 31 29 24 25 23 21 18 22 20 16 12 21 20 30 29 30 33 28 8 9 4 6 14 3 10 11 15 4 6 6 8 12 4 9 17 27 21 16 19 31 34 28 28 30 22 28 31 30 26 22
36 39 31 33 30 28 23 23 22 19 16 19 14 9 8 15 23 21 13 14 22 18 12 7 10 6 12 8 3 10 5 6 5 8 13 6 8 25 22 17 17 15 22 32 30 20 17 23 22 30 30 24 23 23
30 30 32 33 30 25 25 25 21 21 17 10 8 8 6 18 17 11 9 9 14 5 14 15 31 9 11 1 2 1 6 3 3 7 8 4 6 6 7 8 9 11 16 20 21 27 35 27 18 27 20 20 19 21
27 24 28 28 26 22 27 25 26 26 15 14 10 8 13 12 5 5 6 2 7 9 11 11 14 24 10 14 5 2 6 3 8 7 3 4 6 18 8 13 17 24 23 23 16 25 25 12 15 16 16 14 12 12
18 27 27 29 25 23 27 26 23 26 21 7 3 4 10 10 10 9 12 6 5 7 12 12 6 11 14 15 3 4 5 8 8 3 4 6 10 6 7 12 14 16 15 21 17 22 16 5 11 8 9 8 11 13
19 26 30 28 25 24 23 25 24 24 15 10 8 5 6 7 8 9 8 7 13 7 5 12 7 10 10 8 6 5 4 5 3 3 5 4 10 7 24 13 24 23 21 18 19 23 9 8 4 2 7 16 15 11
27 27 32 27 25 24 23 21 29 37 5 6 9 6 10 16 18 27 30 27 31 23 24 12 7 12 5 6 2 6 5 4 1 3 4 4 10 8 17 28 21 15 19 19 17 18 5 5 7 4 2 12 17 12
32 32 32 29 28 26 22 28 35 20 8 8 7 7 9 11 7 11 14 19 12 15 12 9 4 5 3 4 4 2 6 5 3 2 4 3 4 8 14 16 12 15 18 14 13 12 9 12 7 7 12 11 9 10
34 30 34 32 29 26 33 25 11 7 7 6 7 14 18 25 19 17 20 10 6 4 5 5 7 3 2 5 4 3 3 2 10 14 10 8 7 10 10 7 5 12 14 13 13 12 8 11 15 19 13 7 12 15
25 34 36 31 37 35 20 10 7 6 8 11 9 19 19 22 27 18 16 22 11 4 4 5 7 8 5 3 1 4 8 13 16 16 13 13 12 9 10 18 13 12 20 23 25 23 21 24 26 34 30 30 30 28
33 37 31 48 37 15 9 10 7 6 10 10 18 16 13 18 7 9 18 12 7 9 12 9 9 4 3 2 1 4 24 18 17 16 17 17 17 17 18 22 29 32 25 23 20 16 14 21 30 29 37 36 38 29
33 33 45 29 23 4 5 6 8 7 8 12 17 15 9 11 10 6 15 8 11 7 10 6 4 7 16 11 6 11 20 18 15 20 22 21 20 20 21 19 17 20 30 25 20 22 21 19 16 19 18 7 18 4
46 46 32 30 9 6 5 5 6 5 11 11 16 14 7 4 6 17 18 15 17 13 10 26 27 16 10 16 16 14 12 10 16 26 21 25 26 24 26 28 29 25 20 20 23 25 25 26 21 13 8 14 14 9
41 27 15 21 6 6 6 3 3 6 4 10 11 14 7 9 13 19 28 26 13 15 12 12 13 17 16 15 18 19 21 29 29 29 30 26 26 25 25 22 18 22 22 23 14 14 14 13 10 8 6 9 10 12
22 13 6 10 6 6 8 5 4 4 5 9 1 6 7 7 10 13 11 12 13 28 25 16 21 20 22 22 17 21 23 24 27 32 25 27 30 33 30 26 27 23 22 23 21 14 8 3 2 1 3 7 8 10
9 5 4 6 15 8 8 7 7 6 4 9 3 4 7 10 7 10 6 9 26 27 21 19 22 31 33 31 35 31 26 26 30 20 22 24 26 25 21 19 19 24 27 25 20 16 13 11 10 2 6 9 6 3
6 5 5 11 11 8 7 6 1 4 7 8 7 9 9 15 6 6 4 18 30 35 23 17 19 30 38 40 35 25 25 26 27 27 24 17 18 18 18 14 15 20 24 27 26 16 15 16 14 11 10 8 9 13
3 5 6 14 13 12 8 9 10 10 7 7 7 6 10 7 8 6 7 23 27 29 28 23 26 29 30 27 29 26 25 21 16 15 15 14 7 8 15 11 10 12 17 23 23 13 10 12 10 7 6 8 10 14
10 9 14 16 10 6 11 12 13 13 8 8 4 6 6 8 7 7 15 24 34 33 32 30 21 21 25 22 21 20 11 11 12 5 17 14 5 2 4 5 7 8 12 16 20 18 12 7 7 9 11 9 10 13
10 20 12 25 18 22 8 8 7 8 5 7 5 6 4 3 2 2 18 23 23 19 18 23 25 25 23 18 8 11 10 12 13 10 14 11 6 4 3 1 4 6 8 11 14 13 10 12 15 16 15 9 9 9
12 19 11 19 11 13 15 9 9 9 9 4 5 4 6 13 17 28 13 5 6 8 13 19 23 21 24 25 18 12 14 13 13 12 9 5 5 3 3 5 5 2 6 12 12 10 11 14 16 18 13 8 8 9
20 19 11 15 10 10 18 13 20 30 40 44 37 33 24 15 6 7 17 26 28 29 23 17 15 8 15 16 17 11 3 7 12 10 5 3 4 7 9 7 6 7 1 7 9 9 11 16 19 16 10 9 10 12
9 19 15 15 10 17 21 24 34 41 41 40 42 47 38 36 35 33 26 24 23 22 16 10 8 11 14 17 20 23 21 17 14 12 12 12 11 11 10 6 2 7 2 3 4 7 11 16 16 10 10 12 13 17
11 12 7 8 7 15 15 14 15 17 23 31 30 37 29 26 17 19 14 7 4 6 12 14 13 11 10 11 15 23 25 24 25 24 24 22 23 25 21 13 3 3 4 6 8 12 13 13 12 11 14 17 19 22
13 14 12 7 8 8 11 7 8 6 8 5 5 12 12 6 4 4 7 14 7 2 3 6 6 7 8 9 13 20 23 23 23 21 19 18 19 21 20 18 17 13 11 12 14 14 13 16 16 16 19 24 28 31
Wind_Direction_850mb
273 276 278 282 286 278 289 288 277 279 288 291 297 298 288 241 220 232 248 248 247 245 260 257 255 229 201 187 145 310 347 306 15 67 138 221 182 229 180 228 206 192 135 230 116 225 283 190 129 178 215 312 317 321
271 271 271 274 279 291 287 291 283 270 279 287 292 294 292 251 217 218 254 249 261 236 256 259 257 251 245 255 270 239 243 207 237 95 166 119 258 158 172 255 41 231 181 205 177 226 241 237 255 268 284 292 308 316
272 270 267 265 267 276 279 280 282 265 271 279 287 288 289 273 216 216 240 238 234 265 280 269 264 273 272 261 251 242 261 228 229 244 173 170 239 131 187 241 214 251 182 197 19 282 251 296 299 267 283 272 307 320
268 268 265 261 260 266 272 274 280 268 266 273 283 283 286 282 224 220 226 252 232 260 269 270 271 256 260 245 244 240 234 221 248 226 172 143 190 185 219 236 192 209 155 204 257 292 309 326 322 301 283 278 294 304
264 265 261 258 257 255 260 267 268 270 263 264 281 282 285 282 235 221 236 242 227 226 289 284 285 275 263 252 243 241 222 234 235 215 144 212 210 158 206 71 242 203 204 177 231 250 272 281 317 314 272 262 274 280
264 257 260 252 253 251 258 258 258 257 260 263 275 280 277 270 212 233 244 245 231 224 265 297 290 280 283 244 224 226 231 231 210 200 209 213 217 187 189 238 261 243 237 236 247 285 296 290 290 281 246 256 224 226
261 260 253 247 250 250 255 251 246 250 262 263 274 280 275 242 203 214 230 238 213 202 236 280 280 265 304 213 217 210 203 200 199 204 209 202 204 192 163 244 267 269 271 273 284 293 292 277 265 243 225 221 177 210
266 257 250 243 243 242 248 243 240 250 259 269 274 278 259 211 221 237 219 153 162 178 226 251 269 310 170 182 156 164 168 181 198 210 178 187 156 184 245 243 257 274 278 276 273 270 268 270 276 217 213 211 197 196
252 255 245 240 235 232 241 233 238 252 256 274 270 216 196 208 227 241 243 242 207 207 249 204 235 274 335 135 151 141 159 124 190 190 223 159 173 221 224 244 259 289 277 293 299 281 263 255 253 218 216 219 222 205
257 241 250 227 223 226 238 227 238 240 246 233 212 204 204 208 213 203 199 208 160 221 243 248 206 251 326 359 143 115 115 152 174 237 147 163 248 254 269 267 274 280 289 295 287 296 296 261 247 232 232 241 233 214
253 243 226 217 208 220 220 232 208 214 224 202 211 230 196 188 183 200 221 187 180 252 218 232 207 205 276 40 295 161 163 153 174 243 161 219 276 286 298 256 274 294 313 321 297 293 291 272 281 238 237 241 241 223
240 216 205 201 203 206 210 213 201 210 199 192 207 239 162 190 198 226 222 219 201 229 206 191 217 203 226 214 168 232 141 98 228 151 146 270 256 329 287 277 279 295 305 307 333 335 320 260 242 246 238 235 238 229
200 193 198 197 196 204 211 191 211 211 218 255 237 264 181 183 194 203 190 200 235 228 209 192 205 184 199 204 126 158 130 211 130 96 223 232 302 34 337 313 330 349 330 312 288 330 323 188 126 165 187 189 137 140
188 180 186 183 194 190 190 197 195 203 208 230 179 230 223 185 243 206 208 210 229 254 191 302 218 175 181 157 179 148 194 115 106 156 235 237 209 73 36 352 330 328 323 330 328 314 313 214 289 245 183 159 134 93
172 174 181 188 176 185 183 192 190 189 284 267 221 215 211 245 271 273 276 267 257 264 278 289 229 181 196 160 202 107 135 73 295 252 225 174 203 267 300 304 327 14 6 357 345 3 44 54 70 38 355 164 183 248
163 164 171 175 170 164 170 157 180 198 239 254 252 275 305 275 298 322 311 282 290 241 212 221 192 119 54 90 106 89 124 169 206 225 96 150 269 302 314 328 349 10 4 4 10 2 355 312 301 3 80 74 99 129
159 165 162 161 154 154 162 166 165 238 254 265 272 278 283 285 270 292 306 303 332 206 173 157 63 63 38 69 68 30 131 190 114 113 100 64 9 342 327 341 19 16 24 34 24 28 57 77 118 160 177 167 84 114
154 154 152 147 147 143 154 181 224 250 253 247 239 266 301 300 294 319 351 10 33 26 23 100 109 42 52 58 103 211 120 129 121 106 75 34 25 39 75 92 61 38 83 74 69 89 94 104 103 94 96 103 108 94
149 147 146 144 138 142 181 191 242 268 259 260 266 289 295 297 332 23 2 357 76 107 104 65 57 342 335 295 352 133 147 142 131 105 73 65 65 71 94 96 86 94 84 62 66 86 110 91 85 98 102 96 83 53
140 146 157 146 156 151 189 196 215 268 283 320 308 323 330 284 333 37 43 94 112 92 54 52 78 117 101 111 352 131 118 113 119 111 95 78 83 88 99 97 89 87 84 65 72 67 70 85 72 70 98 71 30 31
141 150 161 177 208 296 241 218 221 264 304 306 323 320 336 11 41 16 24 68 62 38 60 90 86 104 103 94 95 103 112 114 114 118 110 108 95 97 89 77 85 94 82 80 75 76 78 75 75 83 105 107 102 105
151 155 185 181 283 267 255 235 224 291 270 297 319 347 19 13 29 32 64 54 54 33 23 38 81 104 101 104 97 93 102 120 111 97 94 104 106 100 88 66 85 87 83 75 71 94 92 83 91 99 90 98 121 121
145 161 217 224 286 340 300 313 240 214 176 141 56 318 309 18 49 25 63 43 47 10 19 71 103 99 94 97 103 122 123 131 124 123 98 93 92 82 76 75 67 56 47 42 32 23 6 359 338 332 153 151 150 127
261 234 251 212 203 238 243 233 210 226 226 171 147 76 32 28 70 72 55 32 8 14 51 82 110 110 104 91 96 107 120 126 120 112 122 112 98 98 76 61 55 49 40 27 20 23 33 35 22 30 163 161 138 50
278 224 253 261 171 219 219 181 175 91 59 36 66 15 357 9 58 62 51 2 25 28 53 83 114 118 105 96 77 99 113 124 128 113 123 122 98 88 66 60 49 39 31 22 22 27 56 51 58 95 105 81 40 16
300 14 21 350 357 36 359 34 27 23 36 59 44 29 18 58 54 31 338 5 32 47 55 82 107 119 114 94 78 96 129 142 147 134 124 150 109 49 48 62 40 34 25 24 33 37 51 64 70 62 45 26 14 13
25 351 354 7 348 21 61 59 54 55 51 35 22 27 35 59 30 333 40 63 67 66 72 77 87 123 110 73 75 72 97 148 169 127 141 160 170 63 67 57 38 32 26 36 42 37 23 36 45 29 16 11 14 21
14 14 18 10 43 40 60 42 41 26 19 25 50 45 92 83 106 61 84 91 67 74 86 80 81 93 95 108 116 112 107 153 155 173 187 186 191 195 189 102 17 15 29 38 39 31 32 27 19 16 4 342 353 4
23 7 43 23 50 51 34 33 32 39 16 126 96 73 57 69 120 138 119 15 45 108 135 107 97 90 75 66 80 140 155 160 183 192 212 210 209 309 342 310 286 315 26 29 36 32 20 10 7 5 7 351 317 313
15 40 66 36 38 46 27 37 35 59 84 95 99 115 106 123 189 211 101 87 81 86 96 100 95 44 34 31 39 40 12 269 267 268 282 308 360 359 4 355 278 255 336 9 6 15 8 359 354 351 349 348 348 335
55 80 72 51 54 37 44 65 78 92 97 99 94 90 87 86 91 94 88 89 87 85 86 97 99 74 52 47 44 39 38 43 55 66 68 55 31 9 8 25 163 190 263 288 317 337 340 339 341 341 336 327 320 325
51 44 52 37 33 41 70 63 67 75 101 115 113 111 102 90 82 79 74 80 52 79 81 70 64 70 59 44 44 43 49 65 72 76 74 65 54 45 41 50 109 236 303 305 312 321 329 337 340 328 326 333 333 324
77 71 57 55 31 30 30 44 52 72 79 92 104 115 91 75 94 153 35 17 356 234 53 64 78 64 66 74 63 56 65 71 69 64 53 39 30 24 25 35 41 37 18 0 343 326 317 324 329 332 328 323 322 322